This demonstration page uses our WeatherBlox Daily Observations layout. Learn more.

Left ArrowRight Arrow

39.01783, -85.05884

Hourly Observations for August 24, 2017

Temp ( °F °C ) Dew Point ( °F °C ) Humidity (%) Winds ( mph kmh ) Pressure ( in mb ) Visibility ( mi km ) Precip ( " mm )
12:52 am 00:52 Clear 64 17.8 55 12.8 73 73 NNW 5 7 30.00 1016 10 16 0.00 0.00
1:52 am 01:52 Clear 63 17.2 55 12.8 76 76 NNW 3 6 30.01 1016 10 16 0.00 0.00
2:52 am 02:52 Clear 62 16.7 55 12.8 78 78 N 6 9 30.00 1016 10 16 0.00 0.00
3:52 am 03:52 Clear 62 16.7 55 12.8 78 78 N 5 7 30.01 1016 10 16 0.00 0.00
4:52 am 04:52 Clear 60 15.6 56 13.3 86 86 N 6 9 30.01 1016 10 16 0.00 0.00
5:52 am 05:52 Clear 60 15.6 55 12.8 84 84 NNW 7 11 30.02 1017 10 16 0.00 0.00
6:52 am 06:52 Mostly Clear 59 15 56 13.3 90 90 NNW 6 9 30.03 1017 10 16 0.00 0.00
7:52 am 07:52 Sunny 59 15 57 13.9 93 93 Calm 30.04 1017 10 16 0.00 0.00
8:52 am 08:52 Sunny 63 17.2 56 13.3 78 78 N 5 7 30.05 1018 10 16 0.00 0.00
9:52 am 09:52 Sunny 68 20 55 12.8 63 63 NNE 5 7 30.06 1018 10 16 0.00 0.00
10:52 am 10:52 Sunny 71 21.7 55 12.8 57 57 N 7 11 30.07 1018 10 16 0.00 0.00
11:52 am 11:52 Sunny 73 22.8 52 11.1 48 48 VRB 7 11 30.06 1018 10 16 0.00 0.00
12:52 pm 12:52 Mostly Sunny 75 23.9 53 11.7 46 46 N 9 15 30.05 1018 10 16 0.00 0.00
1:52 pm 13:52 Partly Cloudy 76 24.4 53 11.7 45 45 NE 9 15 30.05 1018 10 16 0.00 0.00
2:52 pm 14:52 Partly Cloudy 78 25.6 51 10.6 39 39 N 10 17 30.04 1017 10 16 0.00 0.00
3:52 pm 15:52 Mostly Sunny 76 24.4 51 10.6 42 42 NW 8 13 30.04 1017 10 16 0.00 0.00
4:52 pm 16:52 Mostly Sunny 78 25.6 53 11.7 42 42 NNE 7 11 30.03 1017 10 16 0.00 0.00
5:52 pm 17:52 Partly Cloudy 77 25 53 11.7 43 43 N 10 17 30.03 1017 10 16 0.00 0.00
6:52 pm 18:52 Partly Cloudy 75 23.9 53 11.7 46 46 NNW 6 9 30.02 1017 10 16 0.00 0.00
7:52 pm 19:52 Mostly Sunny 73 22.8 55 12.8 53 53 NW 6 9 30.03 1017 10 16 0.00 0.00
8:52 pm 20:52 Mostly Clear 70 21.1 55 12.8 59 59 NNW 8 13 30.04 1017 10 16 0.00 0.00
9:52 pm 21:52 Clear 68 20 55 12.8 63 63 N 6 9 30.05 1018 10 16 0.00 0.00
10:52 pm 22:52 Clear 69 20.6 54 12.2 59 59 NE 9 15 30.06 1018 10 16 0.00 0.00
11:52 pm 23:52 Clear 67 19.4 55 12.8 66 66 ENE 7 11 30.07 1018 10 16 0.00 0.00

Powered by AerisWeather